Погода в Атлоне

Ирландия     53°25′54″N   7°55′22″W
темп.,
°C
ветер,
м/с
пор.,
м/с
влажн.,
%
обл.,
%
осадки,
мм/ч
давл.,
гПа
погр.,
м
12 августа, пт
пт1201:00+15ссв33860 0.0 102243
04:00+13всв22900 0.0 102139
07:00+13всв23870 0.0 102151
10:00+20всв34640 0.0 1021371
13:00+25всв33480 0.0 1019809
16:00+26всв22440 0.0 10181200
19:00+25всв35600 0.0 1018247
22:00+18всв35712 0.0 101965
13 августа, сб
сб1301:00+15всв23710 0.0 101842
04:00+14св22860 0.0 101725
07:00+14св238699 0.0 101752
10:00+20св34593 0.0 1017311
13:00+25св33504 0.0 1016749
16:00+27св33481 0.0 10141144
19:00+25всв346321 0.0 1013313
22:00+18св228165 0.0 101422
14 августа, вс
вс1401:00+16ссв22834 0.0 101331
04:00+15ссв228297 0.0 101218
07:00+15ссз2392100 0.0 101171
10:00+21с237243 0.0 1010391
13:00+25с2257100 0.0 1009909
16:00+25сз3256100 0.0 10071116
19:00+17сз51083100 1.4 1007298
22:00+15вюв1291100 0.8 100741
15 августа, пн
пн1501:00+15ссв1197100 0.8 100620
04:00+14с119763 0.0 100514
07:00+13сз239855 0.0 100571
10:00+17ссз228247 0.0 1005482
13:00+20ссз226698 0.1 10051128
16:00+18сз4580100 0.8 1005650
19:00+15ссз4893100 2.2 1006360
22:00+14ссз4996100 2.2 1007404
16 августа, вт
вт1601:00+14ссз4997100 7.5 1009446
04:00+13ссз4996100 3.0 1009500
07:00+13ссз51091100 3.2 1010591
10:00+14с598387 0.0 1011867
13:00+18с675658 0.0 10121412
16:00+20с564823 0.0 10121706
19:00+18ссз58630 0.0 1013848
22:00+12ссз410784 0.0 1015310